Hourly Weather Talas

Today, 6 July, Monday

Time Temperature Precipitation Wind Pressure Humidity
00:00 +6°C° 0.2 mm 0 mps 591 mmHg 83%
01:00 +6°C° 0.2 mm 0 mps 591 mmHg 84%
02:00 +6°C° 0.2 mm 0 mps 591 mmHg 85%
03:00 +7°C° 0.1 mm 1 mps 591 mmHg 84%
04:00 +7°C° 0.1 mm 1 mps 591 mmHg 82%
05:00 +7°C° 0 mm 1 mps 591 mmHg 80%
06:00 +9°C° 0.6 mm 1 mps 592 mmHg 73%
07:00 +11°C° 0.6 mm 1 mps 593 mmHg 66%
08:00 +13°C° 0.6 mm 1 mps 595 mmHg 59%
09:00 +14°C° 0.4 mm 1 mps 595 mmHg 57%
10:00 +15°C° 0.4 mm 1 mps 595 mmHg 54%
11:00 +15°C° 0 mm 1 mps 596 mmHg 52%
12:00 +16°C° 0.3 mm 2 mps 596 mmHg 54%
13:00 +16°C° 0.3 mm 2 mps 596 mmHg 55%
14:00 +16°C° 0.3 mm 2 mps 596 mmHg 56%
15:00 +16°C° 0.1 mm 2 mps 595 mmHg 58%
16:00 +16°C° 0.1 mm 2 mps 595 mmHg 59%
17:00 +16°C° 0.1 mm 2 mps 595 mmHg 61%
18:00 +14°C° 0 mm 1 mps 594 mmHg 67%
19:00 +12°C° 0 mm 1 mps 594 mmHg 72%
20:00 +9°C° 0 mm 0 mps 593 mmHg 78%
21:00 +11°C° 0 mm 1 mps 593 mmHg 76%
22:00 +10°C° 0 mm 2 mps 594 mmHg 74%
23:00 +10°C° 0 mm 3 mps 594 mmHg 71%

Tomorrow, 7 July, Tuesday

Time Temperature Precipitation Wind Pressure Humidity
00:00 +10°C° 0 mm 3 mps 594 mmHg 70%
01:00 +10°C° 0 mm 3 mps 593 mmHg 68%
02:00 +9°C° 0 mm 3 mps 593 mmHg 67%
03:00 +9°C° 0 mm 3 mps 593 mmHg 65%
04:00 +9°C° 0 mm 3 mps 593 mmHg 63%
05:00 +9°C° 0 mm 3 mps 593 mmHg 62%
06:00 +12°C° 0 mm 2 mps 594 mmHg 56%
07:00 +15°C° 0 mm 2 mps 595 mmHg 50%
08:00 +17°C° 0 mm 2 mps 597 mmHg 44%
09:00 +18°C° 0 mm 2 mps 597 mmHg 41%
10:00 +20°C° 0 mm 2 mps 597 mmHg 38%
11:00 +22°C° 0 mm 1 mps 598 mmHg 34%
12:00 +23°C° 0 mm 2 mps 598 mmHg 34%
13:00 +23°C° 0 mm 2 mps 598 mmHg 34%
14:00 +24°C° 0 mm 2 mps 598 mmHg 34%
15:00 +23°C° 0 mm 2 mps 598 mmHg 36%
16:00 +22°C° 0 mm 3 mps 597 mmHg 39%
17:00 +22°C° 0 mm 3 mps 597 mmHg 41%
18:00 +19°C° 0 mm 2 mps 596 mmHg 48%
19:00 +18°C° 0 mm 1 mps 595 mmHg 55%
20:00 +13°C° 0 mm 0 mps 594 mmHg 63%
21:00 +14°C° 0 mm 1 mps 594 mmHg 61%
22:00 +14°C° 0 mm 2 mps 594 mmHg 59%
23:00 +13°C° 0 mm 3 mps 595 mmHg 57%

Day after tomorrow, 8 July, Wednesday

Time Temperature Precipitation Wind Pressure Humidity
00:00 +13°C° 0 mm 3 mps 594 mmHg 55%
01:00 +13°C° 0 mm 3 mps 594 mmHg 53%
02:00 +13°C° 0 mm 3 mps 594 mmHg 51%
03:00 +13°C° 0 mm 3 mps 594 mmHg 51%
04:00 +13°C° 0 mm 3 mps 594 mmHg 51%
05:00 +12°C° 0 mm 3 mps 594 mmHg 50%
06:00 +16°C° 0 mm 2 mps 595 mmHg 46%
07:00 +18°C° 0 mm 2 mps 596 mmHg 42%
08:00 +22°C° 0 mm 1 mps 597 mmHg 37%
09:00 +23°C° 0 mm 1 mps 598 mmHg 35%
10:00 +24°C° 0 mm 1 mps 598 mmHg 33%
11:00 +25°C° 0 mm 1 mps 598 mmHg 31%
12:00 +25°C° 0.1 mm 2 mps 598 mmHg 32%
13:00 +25°C° 0.1 mm 2 mps 598 mmHg 34%
14:00 +26°C° 0.1 mm 3 mps 597 mmHg 35%
15:00 +24°C° 0.8 mm 3 mps 597 mmHg 42%
16:00 +22°C° 0.8 mm 3 mps 596 mmHg 49%
17:00 +20°C° 0.8 mm 3 mps 595 mmHg 56%
18:00 +19°C° 0.5 mm 3 mps 595 mmHg 61%
19:00 +18°C° 0.5 mm 2 mps 595 mmHg 66%
20:00 +16°C° 0.5 mm 2 mps 594 mmHg 71%
21:00 +16°C° 0 mm 2 mps 594 mmHg 68%
22:00 +16°C° 0 mm 3 mps 594 mmHg 64%
23:00 +16°C° 0 mm 3 mps 594 mmHg 61%

9 July, Thursday

Time Temperature Precipitation Wind Pressure Humidity
00:00 +14°C° 0.1 mm 3 mps 594 mmHg 62%
01:00 +15°C° 0.1 mm 2 mps 594 mmHg 63%
02:00 +14°C° 0.1 mm 2 mps 593 mmHg 64%
03:00 +14°C° 0.4 mm 2 mps 593 mmHg 66%
04:00 +13°C° 0.4 mm 2 mps 593 mmHg 67%
05:00 +12°C° 0.4 mm 3 mps 593 mmHg 69%
06:00 +15°C° 0.1 mm 2 mps 594 mmHg 61%
07:00 +18°C° 0.1 mm 2 mps 595 mmHg 53%
08:00 +21°C° 0.1 mm 1 mps 596 mmHg 46%
09:00 +22°C° 0.2 mm 1 mps 596 mmHg 44%
10:00 +21°C° 0.2 mm 2 mps 596 mmHg 43%
11:00 +23°C° 0.2 mm 2 mps 597 mmHg 41%
12:00 +23°C° 0.8 mm 2 mps 596 mmHg 43%
13:00 +21°C° 0.8 mm 2 mps 596 mmHg 46%
14:00 +21°C° 0.8 mm 2 mps 595 mmHg 48%
15:00 +20°C° 1.2 mm 2 mps 595 mmHg 51%
16:00 +20°C° 1.2 mm 2 mps 595 mmHg 53%
17:00 +19°C° 1.2 mm 2 mps 595 mmHg 56%
18:00 +19°C° 0.4 mm 1 mps 594 mmHg 62%
19:00 +16°C° 0.4 mm 1 mps 594 mmHg 68%
20:00 +14°C° 0.4 mm 1 mps 593 mmHg 74%
21:00 +14°C° 0.3 mm 2 mps 593 mmHg 74%
22:00 +13°C° 0.3 mm 2 mps 593 mmHg 74%
23:00 +12°C° 0.3 mm 3 mps 593 mmHg 74%

10 July, Friday

Time Temperature Precipitation Wind Pressure Humidity
00:00 +12°C° 0.5 mm 3 mps 593 mmHg 75%
01:00 +12°C° 0.5 mm 2 mps 592 mmHg 76%
02:00 +12°C° 0.5 mm 2 mps 592 mmHg 77%
03:00 +12°C° 0.1 mm 2 mps 592 mmHg 76%
04:00 +12°C° 0.1 mm 2 mps 592 mmHg 75%
05:00 +11°C° 0.1 mm 3 mps 592 mmHg 73%
06:00 +14°C° 0.2 mm 2 mps 593 mmHg 67%
07:00 +15°C° 0.2 mm 1 mps 594 mmHg 61%
08:00 +18°C° 0.2 mm 1 mps 595 mmHg 55%
09:00 +18°C° 0.8 mm 2 mps 595 mmHg 56%
10:00 +18°C° 0.8 mm 3 mps 595 mmHg 56%
11:00 +18°C° 0.8 mm 3 mps 595 mmHg 56%
12:00 +18°C° 1.2 mm 3 mps 595 mmHg 58%
13:00 +18°C° 1.2 mm 3 mps 594 mmHg 59%
14:00 +18°C° 1.2 mm 3 mps 594 mmHg 60%
15:00 +18°C° 1 mm 3 mps 594 mmHg 61%
16:00 +17°C° 1 mm 3 mps 594 mmHg 62%
17:00 +17°C° 1 mm 2 mps 594 mmHg 63%
18:00 +16°C° 0.3 mm 2 mps 593 mmHg 68%
19:00 +15°C° 0.3 mm 1 mps 593 mmHg 73%
20:00 +13°C° 0.3 mm 1 mps 592 mmHg 78%
21:00 +13°C° 0 mm 1 mps 592 mmHg 77%
22:00 +13°C° 0 mm 1 mps 593 mmHg 76%
23:00 +13°C° 0 mm 1 mps 593 mmHg 75%

11 July, Saturday

Time Temperature Precipitation Wind Pressure Humidity
00:00 +12°C° 0 mm 1 mps 592 mmHg 75%
01:00 +12°C° 0 mm 1 mps 592 mmHg 76%
02:00 +11°C° 0 mm 1 mps 591 mmHg 76%
03:00 +11°C° 0 mm 1 mps 591 mmHg 77%
04:00 +10°C° 0 mm 0 mps 591 mmHg 77%
05:00 +10°C° 0 mm 0 mps 591 mmHg 77%
06:00 +13°C° 0 mm 1 mps 592 mmHg 73%
07:00 +14°C° 0 mm 1 mps 593 mmHg 68%
08:00 +16°C° 0 mm 1 mps 594 mmHg 63%
09:00 +17°C° 0.5 mm 2 mps 595 mmHg 63%
10:00 +17°C° 0.5 mm 2 mps 595 mmHg 63%
11:00 +18°C° 0.5 mm 2 mps 595 mmHg 62%
12:00 +18°C° 1.1 mm 3 mps 595 mmHg 62%
13:00 +19°C° 1.1 mm 3 mps 595 mmHg 61%
14:00 +19°C° 1.1 mm 3 mps 595 mmHg 60%
15:00 +19°C° 0.8 mm 3 mps 595 mmHg 62%
16:00 +18°C° 0.8 mm 2 mps 595 mmHg 63%
17:00 +18°C° 0.8 mm 2 mps 594 mmHg 65%
18:00 +16°C° 0.2 mm 2 mps 594 mmHg 68%
19:00 +15°C° 0.2 mm 1 mps 594 mmHg 71%
20:00 +14°C° 0.2 mm 1 mps 593 mmHg 74%
21:00 +14°C° 0 mm 1 mps 593 mmHg 74%
22:00 +13°C° 0 mm 1 mps 593 mmHg 74%
23:00 +13°C° 0 mm 1 mps 593 mmHg 75%
Show more